❰ Current Conditions

Blizzard Warning
BLIZZARD WARNING REMAINS IN EFFECT UNTIL MIDNIGHT EST TONIGHT

Blizzard Warning issued January 29 at 3:37AM EST until January 30 at 12:00AM EST by NWS Boston/Norton MA

* WHAT...Blizzard conditions expected. Total snow accumulations of 18 to 24 inches with localized 30 inches possible. Winds gusting as high as 60 mph.

* WHERE...Portions of eastern and northeastern Massachusetts and northern and southern Rhode Island.

* WHEN...From midnight tonight to midnight EST Saturday night.

* IMPACTS...Travel could be extremely difficult to impossible. Strong winds could cause tree damage.

* ADDITIONAL DETAILS...Considerable blowing and drifting snow along with near white out conditions at times. Snowfall rates of 2 to 4 inches per hour is possible at times. .

* PRECAUTIONARY/PREPAREDNESS ACTIONS...Travel should be restricted to emergencies only. If you must travel, have a winter survival kit with you. If you get stranded, stay with your vehicle.
NWS Regional Weather Roundup - New England Area
REGIONAL WEATHER ROUNDUP
NATIONAL WEATHER SERVICE BOSTON/NORTON MA
700 AM EST SAT JAN 29 2022

NOTE:  "FAIR" INDICATES FEW OR NO CLOUDS BELOW 12,000 FEET WITH NO 
SIGNIFICANT WEATHER AND/OR OBSTRUCTIONS TO VISIBILITY.

MAZALL-291300-
EASTERN MASSACHUSETTS
  
CITY           SKY/WX    TMP DP  RH WIND       PRES   REMARKS
BOSTON         SNOW      22  20  92 N28G35    29.75F VSB 1/2 WCI   4  
6HR MIN TEMP:  22; 6HR MAX TEMP:  29; 6HR PCP:  0.06;                

BEVERLY        SNOW      21  18  88 N23G38    29.76F VSB 1/2 WCI   5  
LAWRENCE       LGT SNOW  19  14  81 N18G31    29.83F VSB 3/4 WCI   4  
BEDFORD        LGT SNOW  20  16  84 N18G32    29.78F VSB 3/4 WCI   5  
BLUE HILL      NOT AVBL                                               
NORWOOD        SNOW      23  18  81 N16G26    29.72F VSB 1/2 WCI  10  
MARSHFIELD     MIX PCPN  30  30 100 NE16G40   29.67F VSB<1/4 WCI  19  
PLYMOUTH       HVY SNOW  31  30  96 NE31G48   29.61F VSB 1/4 WCI  16  
TAUNTON        HVY SNOW  29  27  92 NE17G37   29.62F VSB 1/4 WCI  17  
NEW BEDFORD    SNOW      32  31  96 N22G35    29.57F VSB 1/2 WCI  19  
$$

MAZALL-291300-
CAPE COD AND THE ISLANDS
  
CITY           SKY/WX    TMP DP  RH WIND       PRES   REMARKS
FALMOUTH       SNOW      32  32 100 NE40G53   29.54F VSB 1/4 WCI  16  
HYANNIS        SNOW      34  31  88 NE30G45   29.49F VSB 1/2 WCI  20  
CHATHAM        LGT SNOW  33  50 100 NE24G43   29.54F VSB 3/4 WCI  20  
NANTUCKET      LGT SNOW  35  32  88 NE39G51   29.43F VSB 3/4 WCI  20  
MARTHAS VNYRD  LGT SNOW  33  32  96 NE26G49   29.48F VSB 3/4 WCI  20  
$$
 
MAZALL-291300-
CENTRAL AND WESTERN MASSACHUSETTS
  
CITY           SKY/WX    TMP DP  RH WIND       PRES   REMARKS
WORCESTER      LGT SNOW  18  14  84 NE21G36   29.68F VSB 3/4 WCI   1  
6HR MIN TEMP:  18; 6HR MAX TEMP:  24; 6HR PCP:  0.16;                

FITCHBURG      LGT SNOW  19  14  81 N13G23    29.80F VSB 3/4 WCI   6  
ORANGE         LGT SNOW  16  11  80 N13       29.80F WCI   2          
SPRINGFIELD    LGT SNOW  16  11  80 N20G25    29.76F WCI  -1          
WESTFIELD      LGT SNOW  18  13  80 N22G31    29.77F WCI   1          
NORTH ADAMS    LGT SNOW   7  -1  70 W14       29.88F WCI -10          
PITTSFIELD     LGT SNOW   8   4  83 NW6       29.76F FOG     WCI  -2  
$$
 
RIZALL-291300-
RHODE ISLAND
  
CITY           SKY/WX    TMP DP  RH WIND       PRES   REMARKS
PROVIDENCE     SNOW      23  21  92 N26G37    29.63F VSB 1/2 WCI   6  
6HR MIN TEMP:  23; 6HR MAX TEMP:  30; 6HR PCP:  0.10;                

NEWPORT        SNOW      28  27  96 N24G33    29.57F VSB 1/2 WCI  14  
BLOCK ISLAND   SNOW      25  24  96 N29G38    29.51F VSB 1/2 WCI   8  
SMITHFIELD     LGT SNOW  20  18  92 N23G33    29.65F VSB 3/4 WCI   3  
WESTERLY       LGT SNOW  24  20  84 N21G35    29.57F VSB 1   WCI   9  
$$
 
CTZALL-291300-
CONNECTICUT
  
CITY           SKY/WX    TMP DP  RH WIND       PRES   REMARKS
BRADLEY INTL   LGT SNOW  19  14  81 N22G31    29.75F VSB 1   WCI   2  
6HR MIN TEMP:  19; 6HR MAX TEMP:  27; 6HR PCP:  0.05;                

HARTFORD       LGT SNOW  20  15  81 N22G31    29.74S WCI   3          
BRIDGEPORT     LGT SNOW  25  23  92 N24G32    29.66F VSB 1   WCI   9  
DANBURY        LGT SNOW  17   9  70 NW6       29.72F WCI   9          
GROTON         LGT SNOW  25  21  85 N26G37    29.58F VSB 1   WCI   9  
NEW HAVEN      LGT SNOW  24  20  84 N24G39    29.64F VSB 3/4 WCI   8  
CHESTER        SNOW      23  21  93 N16G31    29.61F VSB 1/2 WCI  10  
MERIDEN        LGT SNOW  22  16  78 N15G28    29.70F WCI   9          
WILLIMANTIC    LGT SNOW  22  18  85 N20G28    29.68F VSB 3/4 WCI   7  
OXFORD         LGT SNOW  21  19  92 N17G30    29.67F VSB 1   WCI   7  
$$

MEZ002-015-021-024-NHZ003-005-008-011-012-014-VTZ005-008-291300-
NORTHERN NEW ENGLAND
  
CITY           SKY/WX    TMP DP  RH WIND       PRES   REMARKS
PORTLAND ME    FLURRIES  14   5  67 N20G36    29.94F WCI  -3          
6HR MIN TEMP:  14; 6HR MAX TEMP:  22; 6HR PCP: TRACE;                

BANGOR ME      CLOUDY     5  -5  63 N15       30.09F WCI -13          
CONCORD NH     LGT SNOW  17  10  74 N12       29.89F WCI   4          
MANCHESTER NH  LGT SNOW  19  13  77 N20G25    29.84F VSB 1   WCI   3  
NASHUA NH      LGT SNOW  19  17  92 N13G21    29.85F VSB 1   WCI   6  
PORTSMOUTH NH  LGT SNOW  17  11  79 N18G24    29.88  VSB 3/4 WCI   0  
JAFFREY NH     LGT SNOW  18  14  84 N8        29.77F FOG     WCI   8  
KEENE NH       LGT SNOW  11   7  84 N15       29.85F FOG     WCI  -5  
BURLINGTON VT  MOCLDY    -3 -10  72 N12       30.12F WCI -21          
MT. WASHINGTON NOT AVBL                                               
$$

NYZ052-076-291300-
EASTERN NEW YORK
  
CITY           SKY/WX    TMP DP  RH WIND       PRES   REMARKS
ALBANY         LGT SNOW   5   0  79 N12       29.98F FOG     WCI -11  
6HR MIN TEMP:   5; 6HR MAX TEMP:   9; 6HR PCP:  0.04;                

NEW YORK CITY  SNOW      19  14  81 N25G39    29.68F VSB 1/2 WCI   1  
6HR MIN TEMP:  19; 6HR MAX TEMP:  28; 6HR PCP:  0.15;                

$$
 
ANZALL-291300-
MARINE OBSERVATIONS
  
STATION/POSITION TIME  TEMP    WIND        PRES    VSBY  WAVE
                       AIR SEA DIR/SP/G                  HT/PER
                 (UTC) (F)     (DEG/KT/KT) (MB)    (MI)  (FT/S)
BOSTON BUOY      1150      44   40/ 35/ 45 1006.1F        14/ 8
BUZZARDS BAY     1100                      1000.6F
NANTUCKET SOUND  1150   34 36   30/ 31/ 41  998.7F
MASS BAY-STELLWA NOT AVBL
ISLE OF SHOALS   1100   23      20/ 38/ 46 1010.2F
S OF BLOCK IS    1126      45                N/A          10/ 6
$$

......................KEY.........................
  SKY/WX - SKY CONDITION/PRESENT WEATHER
  TMP    - TEMPERATURE IN FAHRENHEIT
  DWPT   - DEWPOINT IN FAHRENHEIT
  RH     - RELATIVE HUMIDITY IN PERCENT
  WIND   - DIRECTION AND SPEED IN MPH
  PRES   - MEAN SEA LEVEL PRESSURE IN INCHES OF HG
  WCI    - WIND CHILL INDEX
  VSB    - VISIBILITY IN MILES
  HX     - HEAT INDEX
  TC     - TEMPERATURE IN CELSIUS
  VRB    - VARIABLE WIND DIRECTION
  N/A    - NOT AVAILABLE